Weather History for Prescott, AZ

Change the Weather History Date:

Tuesday, June 18, 2013

  Actual Average Record
Temperature  
Mean Temperature 73 °F 71 °F  
Max Temperature 90 °F 87 °F 100 °F (1989)
Min Temperature 55 °F 56 °F 37 °F (1995)
Degree Days  
Heating Degree Days 0    
Month to date heating degree days 0  
Since 1 July heating degree days 3911  
Cooling Degree Days 8    
Month to date cooling degree days 182  
Year to date cooling degree days 225  
Growing Degree Days 22 (Base 50)    
Moisture  
Dew Point 16 °F    
Average Humidity 12    
Maximum Humidity 35    
Minimum Humidity 6    
Precipitation  
Precipitation 0.00 in 0.01 in 0.32 in (1967)
Month to date precipitation T 0.17  
Year to date precipitation 2.51 4.71  
Sea Level Pressure  
Sea Level Pressure 29.78 in    
Wind  
Wind Speed 9 mph (South)    
Max Wind Speed 25 mph    
Max Gust Speed 40 mph    
Visibility 10 miles    
Events      
T = Trace of Precipitation, MM = Missing Value Source: NWS Daily Summary

Daily Weather History Graph

Daily Weather History Graph

Search for Another Location

Airport:

Trip Planner

Search our weather history database for the weather conditions in past years. The results will help you decide how hot, cold, wet, or windy it might be!

Date:

Astronomy

Jun. 18, 2013 Rise Set
Actual Time 5:16 AM MST 7:45 PM MST
Civil Twilight 4:47 AM MST 8:14 PM MST
Nautical Twilight 4:10 AM MST 8:51 PM MST
Astronomical Twilight 3:30 AM MST 9:31 PM MST
Moon 2:43 PM MST (6/18) 1:16 AM MST (6/18)
Length of Visible Light 15h 27m
Length of Day
14h 28m
Waxing Gibbous, 72% of the Moon is Illuminated
Jun 18
Waxing Gibbous
Jun 23
Full
Jun 29
Last Quarter
Jul 8
New
Jul 15
First Quarter

Hourly Weather History & Observations

Time (MST) Temp. Dew Point Humidity Pressure Visibility Wind Dir Wind Speed Gust Speed Precip Events Conditions
12:53 AM 64.0 °F 17.1 °F 16% 29.80 in 10.0 mi South 8.1 mph - N/A   Clear
1:53 AM 62.1 °F 19.0 °F 19% 29.80 in 10.0 mi South 9.2 mph - N/A   Clear
2:53 AM 55.9 °F 28.0 °F 34% 29.82 in 10.0 mi SSW 3.5 mph - N/A   Clear
3:53 AM 60.1 °F 19.9 °F 21% 29.81 in 10.0 mi Calm Calm - N/A   Clear
4:53 AM 55.9 °F 25.0 °F 30% 29.83 in 10.0 mi South 5.8 mph - N/A   Clear
5:53 AM 60.1 °F 19.9 °F 21% 29.82 in 10.0 mi South 8.1 mph - N/A   Clear
6:53 AM 68.0 °F 21.0 °F 17% 29.81 in 10.0 mi Calm Calm - N/A   Clear
7:53 AM 75.0 °F 18.0 °F 12% 29.81 in 10.0 mi Calm Calm - N/A   Clear
8:53 AM 82.0 °F 21.0 °F 10% 29.81 in 10.0 mi South 11.5 mph - N/A   Clear
9:53 AM 84.0 °F 19.0 °F 9% 29.81 in 10.0 mi SSW 10.4 mph 20.7 mph N/A   Clear
10:53 AM 86.0 °F 18.0 °F 8% 29.81 in 10.0 mi South 13.8 mph 23.0 mph N/A   Clear
11:53 AM 87.1 °F 17.1 °F 8% 29.81 in 10.0 mi South 18.4 mph 24.2 mph N/A   Clear
12:53 PM 88.0 °F 16.0 °F 7% 29.80 in 10.0 mi South 17.3 mph 25.3 mph N/A   Clear
1:53 PM 88.0 °F 16.0 °F 7% 29.79 in 10.0 mi South 13.8 mph 20.7 mph N/A   Clear
2:53 PM 88.0 °F 16.0 °F 7% 29.79 in 10.0 mi South 11.5 mph 21.9 mph N/A   Clear
3:53 PM 89.1 °F 17.1 °F 7% 29.75 in 10.0 mi SSW 10.4 mph 18.4 mph N/A   Clear
4:53 PM 87.1 °F 12.9 °F 6% 29.75 in 10.0 mi South 11.5 mph - N/A   Clear
5:53 PM 84.0 °F 10.0 °F 6% 29.74 in 10.0 mi SSW 11.5 mph 20.7 mph N/A   Clear
6:53 PM 82.0 °F 9.0 °F 6% 29.73 in 10.0 mi SSW 12.7 mph 18.4 mph N/A   Clear
7:53 PM 79.0 °F 9.0 °F 7% 29.71 in 10.0 mi SSW 6.9 mph - N/A   Clear
8:53 PM 75.0 °F 10.9 °F 9% 29.71 in 10.0 mi SSE 5.8 mph - N/A   Clear
9:53 PM 73.0 °F 9.0 °F 8% 29.72 in 10.0 mi SSE 6.9 mph - N/A   Clear
10:53 PM 73.0 °F 9.0 °F 8% 29.70 in 10.0 mi South 8.1 mph - N/A   Clear
11:53 PM 72.0 °F 14.0 °F 11% 29.68 in 10.0 mi South 9.2 mph - N/A   Clear